SJV652 WARR-WALS

Flight info

Callsign SJV652
Flight time 1h 29m
Altitude 37000
Route RAMPY W31 BDM DCT OKTUT
Aircraft A320/M-SDE3FGHIRWY/LB1

Departure

Time 2026-04-24 12:36
Airport Juanda International Airport (WARR)

Arrival

Time 2026-04-24 14:05
Airport Aji Pangeran Tumenggung Pranoto International Airport (WALS)
Time Latitude Longitude Altitude Speed Heading
2026-04-24 12:12 -7.37607 112.79593 19 ft 0 kts 10°
2026-04-24 12:23 -7.37622 112.79591 19 ft 2 kts
2026-04-24 12:24 -7.37637 112.79588 19 ft 2 kts 10°
2026-04-24 12:24 -7.37652 112.79585 19 ft 2 kts
2026-04-24 12:24 -7.37661 112.79584 19 ft 2 kts
2026-04-24 12:24 -7.37676 112.79585 19 ft 2 kts 342°
2026-04-24 12:25 -7.37689 112.79591 19 ft 2 kts 322°
2026-04-24 12:25 -7.37700 112.79602 19 ft 2 kts 303°
2026-04-24 12:25 -7.37706 112.79615 19 ft 1 kts 284°
2026-04-24 12:25 -7.37707 112.79622 19 ft 1 kts 277°
2026-04-24 12:26 -7.37707 112.79624 19 ft 0 kts 278°
2026-04-24 12:26 -7.37707 112.79623 19 ft 0 kts 278°
2026-04-24 12:27 -7.37707 112.79622 19 ft 1 kts 278°
2026-04-24 12:28 -7.37700 112.79573 19 ft 11 kts 278°
2026-04-24 12:28 -7.37684 112.79488 19 ft 8 kts 280°
2026-04-24 12:28 -7.37713 112.79446 19 ft 9 kts 192°
2026-04-24 12:28 -7.37780 112.79436 19 ft 10 kts 188°
2026-04-24 12:29 -7.37856 112.79424 19 ft 10 kts 188°
2026-04-24 12:29 -7.37901 112.79412 19 ft 6 kts 221°
2026-04-24 12:29 -7.37919 112.79368 19 ft 7 kts 268°
2026-04-24 12:29 -7.37906 112.79287 19 ft 15 kts 279°
2026-04-24 12:30 -7.37889 112.79180 19 ft 18 kts 279°
2026-04-24 12:30 -7.37868 112.79049 19 ft 18 kts 279°
2026-04-24 12:30 -7.37848 112.78921 19 ft 18 kts 279°
2026-04-24 12:30 -7.37826 112.78787 19 ft 18 kts 279°
2026-04-24 12:31 -7.37805 112.78660 19 ft 18 kts 279°
2026-04-24 12:31 -7.37784 112.78531 19 ft 18 kts 279°
2026-04-24 12:31 -7.37763 112.78404 19 ft 18 kts 279°
2026-04-24 12:31 -7.37742 112.78275 19 ft 18 kts 279°
2026-04-24 12:32 -7.37721 112.78145 19 ft 18 kts 279°
2026-04-24 12:32 -7.37700 112.78014 19 ft 18 kts 279°
2026-04-24 12:32 -7.37678 112.77883 19 ft 18 kts 280°
2026-04-24 12:32 -7.37657 112.77756 19 ft 18 kts 279°
2026-04-24 12:33 -7.37636 112.77624 19 ft 18 kts 279°
2026-04-24 12:33 -7.37616 112.77496 19 ft 14 kts 279°
2026-04-24 12:33 -7.37607 112.77434 19 ft 6 kts 272°
2026-04-24 12:33 -7.37633 112.77392 19 ft 8 kts 210°
2026-04-24 12:34 -7.37694 112.77375 19 ft 9 kts 187°
2026-04-24 12:34 -7.37753 112.77370 19 ft 4 kts 184°
2026-04-24 12:34 -7.37771 112.77377 19 ft 3 kts 121°
2026-04-24 12:34 -7.37774 112.77387 19 ft 0 kts 99°
2026-04-24 12:35 -7.37774 112.77389 19 ft 0 kts 99°
2026-04-24 12:35 -7.37780 112.77422 19 ft 20 kts 99°
2026-04-24 12:35 -7.37852 112.77867 20 ft 102 kts 99°
2026-04-24 12:35 -7.38003 112.78808 84 ft 160 kts 99°
2026-04-24 12:36 -7.38171 112.79859 909 ft 151 kts 99°
2026-04-24 12:36 -7.38343 112.80921 1640 ft 155 kts 99°
2026-04-24 12:36 -7.38522 112.82019 2173 ft 162 kts 99°
2026-04-24 12:36 -7.38712 112.83189 2573 ft 178 kts 99°
2026-04-24 12:37 -7.38925 112.84500 3004 ft 195 kts 99°
2026-04-24 12:37 -7.39160 112.85944 3387 ft 219 kts 99°
2026-04-24 12:37 -7.39423 112.87556 3912 ft 238 kts 99°
2026-04-24 12:37 -7.39701 112.89271 4441 ft 256 kts 98°
2026-04-24 12:38 -7.39590 112.91120 5064 ft 269 kts 69°
2026-04-24 12:38 -7.38542 112.92649 5925 ft 271 kts 39°
2026-04-24 12:38 -7.36868 112.93527 6811 ft 273 kts 20°
2026-04-24 12:39 -7.31368 112.95466 9231 ft 284 kts 19°
2026-04-24 12:39 -7.29498 112.96137 9989 ft 287 kts 19°
2026-04-24 12:39 -7.27574 112.96835 10658 ft 293 kts 20°
2026-04-24 12:40 -7.25578 112.97565 11006 ft 311 kts 20°
2026-04-24 12:40 -7.23482 112.98332 11313 ft 328 kts 20°
2026-04-24 12:40 -7.21265 112.99146 11610 ft 345 kts 20°
2026-04-24 12:40 -7.18967 112.99990 12003 ft 357 kts 20°
2026-04-24 12:41 -7.16634 113.00848 12657 ft 361 kts 20°
2026-04-24 12:41 -7.14270 113.01717 13330 ft 363 kts 20°
2026-04-24 12:41 -7.11872 113.02600 13964 ft 367 kts 20°
2026-04-24 12:41 -7.09479 113.03481 14575 ft 370 kts 20°
2026-04-24 12:42 -7.07053 113.04375 15176 ft 373 kts 20°
2026-04-24 12:42 -7.04580 113.05283 15783 ft 376 kts 19°
2026-04-24 12:42 -7.02098 113.06198 16361 ft 379 kts 20°
2026-04-24 12:42 -6.99628 113.07114 16897 ft 383 kts 20°
2026-04-24 12:43 -6.97099 113.08051 17444 ft 386 kts 20°
2026-04-24 12:43 -6.94522 113.09004 17992 ft 389 kts 20°
2026-04-24 12:43 -6.91977 113.09943 18515 ft 392 kts 20°
2026-04-24 12:43 -6.89376 113.10902 19036 ft 395 kts 20°
2026-04-24 12:44 -6.86763 113.11861 19541 ft 398 kts 20°
2026-04-24 12:44 -6.84129 113.12826 20036 ft 401 kts 20°
2026-04-24 12:44 -6.81476 113.13799 20517 ft 404 kts 20°
2026-04-24 12:44 -6.78780 113.14790 20988 ft 407 kts 20°
2026-04-24 12:45 -6.76096 113.15777 21442 ft 410 kts 20°
2026-04-24 12:45 -6.73376 113.16777 21887 ft 413 kts 20°
2026-04-24 12:45 -6.70639 113.17783 22322 ft 415 kts 20°
2026-04-24 12:45 -6.67935 113.18778 22738 ft 418 kts 20°
2026-04-24 12:46 -6.65179 113.19792 23150 ft 421 kts 20°
2026-04-24 12:46 -6.62411 113.20811 23552 ft 423 kts 20°
2026-04-24 12:46 -6.59617 113.21838 23946 ft 426 kts 20°
2026-04-24 12:46 -6.56756 113.22891 24338 ft 428 kts 20°
2026-04-24 12:47 -6.53980 113.23912 24707 ft 431 kts 20°
2026-04-24 12:47 -6.51154 113.24952 25072 ft 433 kts 20°
2026-04-24 12:47 -6.48263 113.26015 25439 ft 435 kts 20°
2026-04-24 12:47 -6.45384 113.27074 25791 ft 438 kts 20°
2026-04-24 12:48 -6.42526 113.28126 26136 ft 440 kts 20°
2026-04-24 12:48 -6.39591 113.29207 26479 ft 442 kts 20°
2026-04-24 12:48 -6.36705 113.30270 26811 ft 445 kts 20°
2026-04-24 12:48 -6.33744 113.31361 27145 ft 447 kts 20°
2026-04-24 12:49 -6.30861 113.32422 27463 ft 449 kts 20°
2026-04-24 12:49 -6.27870 113.33521 27802 ft 451 kts 20°
2026-04-24 12:49 -6.24912 113.34689 28239 ft 450 kts 23°
2026-04-24 12:49 -6.22040 113.36002 28700 ft 448 kts 25°
2026-04-24 12:50 -6.19326 113.37316 29118 ft 447 kts 26°
2026-04-24 12:50 -6.16524 113.38686 29526 ft 446 kts 26°
2026-04-24 12:50 -6.13706 113.40066 29925 ft 446 kts 26°
2026-04-24 12:50 -6.10911 113.41434 30317 ft 445 kts 26°
2026-04-24 12:51 -6.08102 113.42808 30706 ft 444 kts 26°
2026-04-24 12:51 -6.05327 113.44165 31081 ft 444 kts 26°
2026-04-24 12:51 -6.02529 113.45531 31451 ft 443 kts 26°
2026-04-24 12:51 -5.99764 113.46883 31810 ft 442 kts 26°
2026-04-24 12:52 -5.96957 113.48253 32167 ft 442 kts 26°
2026-04-24 12:52 -5.94184 113.49607 32512 ft 441 kts 26°
2026-04-24 12:52 -5.91398 113.50967 32851 ft 440 kts 26°
2026-04-24 12:52 -5.89168 113.52055 33116 ft 440 kts 26°
2026-04-24 12:53 -5.86228 113.53482 33459 ft 439 kts 26°
2026-04-24 12:53 -5.83469 113.54820 33773 ft 438 kts 26°
2026-04-24 12:53 -5.80694 113.56168 34079 ft 438 kts 26°
2026-04-24 12:53 -5.77928 113.57513 34377 ft 437 kts 26°
2026-04-24 12:54 -5.75157 113.58862 34668 ft 437 kts 26°
2026-04-24 12:54 -5.72407 113.60202 34948 ft 436 kts 26°
2026-04-24 12:54 -5.69668 113.61537 35214 ft 436 kts 26°
2026-04-24 12:54 -5.66899 113.62887 35445 ft 436 kts 26°
2026-04-24 12:55 -5.64180 113.64213 35640 ft 437 kts 26°
2026-04-24 12:55 -5.61438 113.65551 35823 ft 438 kts 26°
2026-04-24 12:55 -5.58675 113.66911 36002 ft 439 kts 26°
2026-04-24 12:55 -5.55886 113.68286 36178 ft 440 kts 26°
2026-04-24 12:56 -5.53127 113.69641 36341 ft 440 kts 26°
2026-04-24 12:56 -5.50327 113.71012 36493 ft 441 kts 26°
2026-04-24 12:56 -5.47518 113.72385 36637 ft 442 kts 26°
2026-04-24 12:56 -5.44757 113.73733 36772 ft 443 kts 26°
2026-04-24 12:57 -5.41979 113.75088 36903 ft 444 kts 26°
2026-04-24 12:57 -5.36352 113.77830 36984 ft 446 kts 26°
2026-04-24 12:58 -5.30980 113.80447 36990 ft 446 kts 26°
2026-04-24 12:58 -5.25319 113.83203 36991 ft 446 kts 26°
2026-04-24 12:59 -5.19727 113.85926 36991 ft 446 kts 26°
2026-04-24 12:59 -5.14109 113.88661 36991 ft 446 kts 26°
2026-04-24 13:00 -5.08495 113.91394 36991 ft 446 kts 26°
2026-04-24 13:00 -5.02898 113.94119 36991 ft 446 kts 26°
2026-04-24 13:01 -4.97046 113.96967 36991 ft 446 kts 26°
2026-04-24 13:01 -4.91766 113.99562 36991 ft 446 kts 26°
2026-04-24 13:02 -4.86168 114.02343 36991 ft 446 kts 26°
2026-04-24 13:02 -4.80568 114.05119 36991 ft 446 kts 26°
2026-04-24 13:03 -4.75141 114.07815 36991 ft 446 kts 26°
2026-04-24 13:03 -4.69544 114.10597 36991 ft 446 kts 26°
2026-04-24 13:04 -4.63905 114.13401 36991 ft 446 kts 26°
2026-04-24 13:04 -4.58324 114.16177 36991 ft 446 kts 26°
2026-04-24 13:05 -4.52712 114.18967 36991 ft 446 kts 26°
2026-04-24 13:05 -4.47138 114.21737 36991 ft 446 kts 26°
2026-04-24 13:06 -4.41548 114.24515 36991 ft 446 kts 26°
2026-04-24 13:06 -4.35966 114.27290 36991 ft 446 kts 26°
2026-04-24 13:07 -4.30337 114.30086 36991 ft 446 kts 26°
2026-04-24 13:07 -4.24737 114.32868 36991 ft 446 kts 26°
2026-04-24 13:08 -4.19140 114.35648 36991 ft 446 kts 26°
2026-04-24 13:08 -4.13578 114.38411 36991 ft 446 kts 26°
2026-04-24 13:09 -4.05168 114.42587 36991 ft 446 kts 26°
2026-04-24 13:09 -3.99567 114.45367 36991 ft 446 kts 26°
2026-04-24 13:10 -3.93987 114.48138 36991 ft 447 kts 26°
2026-04-24 13:10 -3.88444 114.50887 36991 ft 447 kts 26°
2026-04-24 13:11 -3.82843 114.53653 36991 ft 447 kts 26°
2026-04-24 13:11 -3.77269 114.56412 36991 ft 447 kts 26°
2026-04-24 13:12 -3.71660 114.59194 36991 ft 447 kts 26°
2026-04-24 13:12 -3.66094 114.61958 36991 ft 447 kts 26°
2026-04-24 13:13 -3.60508 114.64733 36991 ft 447 kts 26°
2026-04-24 13:13 -3.54957 114.67514 36991 ft 447 kts 26°
2026-04-24 13:14 -3.49391 114.70290 36991 ft 447 kts 26°
2026-04-24 13:14 -3.43919 114.73251 36991 ft 447 kts 31°
2026-04-24 13:15 -3.38813 114.76781 36991 ft 447 kts 37°
2026-04-24 13:15 -3.33882 114.80536 36991 ft 447 kts 37°
2026-04-24 13:16 -3.28934 114.84312 36991 ft 447 kts 37°
2026-04-24 13:16 -3.24010 114.88062 36991 ft 447 kts 37°
2026-04-24 13:17 -3.19054 114.91831 36991 ft 447 kts 37°
2026-04-24 13:17 -3.14129 114.95576 36991 ft 447 kts 37°
2026-04-24 13:18 -3.09126 114.99378 36991 ft 447 kts 37°
2026-04-24 13:18 -3.04197 115.03124 36991 ft 447 kts 37°
2026-04-24 13:19 -2.99208 115.06915 36991 ft 447 kts 37°
2026-04-24 13:19 -2.94238 115.10691 36991 ft 447 kts 37°
2026-04-24 13:20 -2.89322 115.14426 36991 ft 447 kts 37°
2026-04-24 13:20 -2.84305 115.18215 36991 ft 447 kts 37°
2026-04-24 13:21 -2.79349 115.21965 36991 ft 447 kts 37°
2026-04-24 13:21 -2.74372 115.25739 36991 ft 447 kts 37°
2026-04-24 13:22 -2.69399 115.29514 36991 ft 447 kts 37°
2026-04-24 13:22 -2.64462 115.33262 36991 ft 447 kts 37°
2026-04-24 13:23 -2.60081 115.36588 36991 ft 447 kts 37°
2026-04-24 13:23 -2.55091 115.40376 36991 ft 447 kts 37°
2026-04-24 13:24 -2.50140 115.44135 36991 ft 447 kts 37°
2026-04-24 13:24 -2.45171 115.47907 36991 ft 447 kts 37°
2026-04-24 13:25 -2.40213 115.51669 36991 ft 448 kts 37°
2026-04-24 13:25 -2.35230 115.55450 36991 ft 448 kts 37°
2026-04-24 13:26 -2.30257 115.59225 36991 ft 448 kts 37°
2026-04-24 13:26 -2.25299 115.62986 36991 ft 448 kts 37°
2026-04-24 13:27 -2.20342 115.66755 36991 ft 448 kts 37°
2026-04-24 13:27 -2.15533 115.70431 36991 ft 448 kts 37°
2026-04-24 13:28 -2.10586 115.74197 36991 ft 448 kts 37°
2026-04-24 13:28 -2.05633 115.77959 36991 ft 448 kts 37°
2026-04-24 13:29 -2.00680 115.81717 36991 ft 448 kts 37°
2026-04-24 13:29 -1.95714 115.85484 36991 ft 448 kts 37°
2026-04-24 13:30 -1.90757 115.89243 36988 ft 447 kts 37°
2026-04-24 13:30 -1.88297 115.91105 36700 ft 446 kts 37°
2026-04-24 13:30 -1.85807 115.92981 35906 ft 451 kts 37°
2026-04-24 13:31 -1.83676 115.94589 35120 ft 456 kts 37°
2026-04-24 13:31 -1.81112 115.96524 34243 ft 460 kts 37°
2026-04-24 13:31 -1.78551 115.98460 33440 ft 462 kts 37°
2026-04-24 13:31 -1.76052 116.00352 32679 ft 464 kts 37°
2026-04-24 13:32 -1.73478 116.02301 31858 ft 463 kts 37°
2026-04-24 13:32 -1.70934 116.04229 30628 ft 459 kts 37°
2026-04-24 13:32 -1.68436 116.06122 28872 ft 466 kts 37°
2026-04-24 13:32 -1.66298 116.07742 27741 ft 473 kts 37°
2026-04-24 13:33 -1.64168 116.09357 27227 ft 468 kts 37°
2026-04-24 13:33 -1.61581 116.11317 26880 ft 457 kts 37°
2026-04-24 13:33 -1.59096 116.13201 26502 ft 448 kts 37°
2026-04-24 13:33 -1.56636 116.15067 26048 ft 442 kts 37°
2026-04-24 13:34 -1.54168 116.16938 25562 ft 437 kts 37°
2026-04-24 13:34 -1.51769 116.18757 25074 ft 432 kts 37°
2026-04-24 13:34 -1.49378 116.20570 24580 ft 427 kts 37°
2026-04-24 13:34 -1.47037 116.22344 24091 ft 423 kts 37°
2026-04-24 13:35 -1.44740 116.24085 23608 ft 420 kts 37°
2026-04-24 13:35 -1.42415 116.25848 23118 ft 416 kts 37°
2026-04-24 13:35 -1.40118 116.27589 22629 ft 412 kts 37°
2026-04-24 13:35 -1.37829 116.29324 22140 ft 409 kts 37°
2026-04-24 13:36 -1.35586 116.31024 21659 ft 406 kts 37°
2026-04-24 13:36 -1.33297 116.32759 21166 ft 403 kts 37°
2026-04-24 13:36 -1.31065 116.34451 20684 ft 401 kts 37°
2026-04-24 13:36 -1.28842 116.36136 20202 ft 399 kts 37°
2026-04-24 13:37 -1.26627 116.37814 19722 ft 397 kts 37°
2026-04-24 13:37 -1.24442 116.39471 19248 ft 395 kts 37°
2026-04-24 13:37 -1.22232 116.41145 18767 ft 393 kts 37°
2026-04-24 13:37 -1.20029 116.42815 18290 ft 391 kts 37°
2026-04-24 13:38 -1.17854 116.44463 17814 ft 389 kts 37°
2026-04-24 13:38 -1.15682 116.46109 17337 ft 387 kts 37°
2026-04-24 13:38 -1.13528 116.47741 16862 ft 385 kts 37°
2026-04-24 13:38 -1.11410 116.49345 16394 ft 383 kts 37°
2026-04-24 13:39 -1.09601 116.50716 15992 ft 381 kts 37°
2026-04-24 13:39 -1.07481 116.52322 15522 ft 379 kts 37°
2026-04-24 13:39 -1.05360 116.53930 15050 ft 377 kts 37°
2026-04-24 13:39 -1.03265 116.55518 14582 ft 375 kts 37°
2026-04-24 13:40 -1.01181 116.57096 14115 ft 373 kts 37°
2026-04-24 13:40 -0.99094 116.58678 13649 ft 371 kts 37°
2026-04-24 13:40 -0.97028 116.60242 13247 ft 367 kts 37°
2026-04-24 13:40 -0.95008 116.61773 12901 ft 362 kts 37°
2026-04-24 13:41 -0.92989 116.63303 12573 ft 359 kts 37°
2026-04-24 13:41 -0.91003 116.64808 12213 ft 357 kts 37°
2026-04-24 13:41 -0.89008 116.66325 11798 ft 355 kts 37°
2026-04-24 13:41 -0.87042 116.67818 11368 ft 354 kts 37°
2026-04-24 13:42 -0.85084 116.69302 10928 ft 353 kts 37°
2026-04-24 13:42 -0.83134 116.70780 10487 ft 351 kts 37°
2026-04-24 13:42 -0.81198 116.72247 10307 ft 341 kts 37°
2026-04-24 13:42 -0.79405 116.73605 10224 ft 328 kts 37°
2026-04-24 13:43 -0.77608 116.74968 10140 ft 316 kts 37°
2026-04-24 13:43 -0.75866 116.76289 10064 ft 304 kts 37°
2026-04-24 13:43 -0.74184 116.77563 9927 ft 296 kts 37°
2026-04-24 13:43 -0.72529 116.78818 9558 ft 296 kts 37°
2026-04-24 13:44 -0.70887 116.80062 9218 ft 294 kts 37°
2026-04-24 13:44 -0.69230 116.81318 8883 ft 293 kts 37°
2026-04-24 13:44 -0.67770 116.82424 8592 ft 292 kts 37°
2026-04-24 13:44 -0.66142 116.83658 8268 ft 290 kts 37°
2026-04-24 13:45 -0.64537 116.84874 7950 ft 288 kts 37°
2026-04-24 13:45 -0.62936 116.86087 7632 ft 287 kts 37°
2026-04-24 13:45 -0.61341 116.87296 7315 ft 285 kts 37°
2026-04-24 13:45 -0.59779 116.88480 7005 ft 284 kts 37°
2026-04-24 13:46 -0.58203 116.89674 6693 ft 282 kts 37°
2026-04-24 13:46 -0.56631 116.90865 6381 ft 281 kts 37°
2026-04-24 13:46 -0.55083 116.92039 6170 ft 275 kts 37°
2026-04-24 13:46 -0.53595 116.93165 6156 ft 262 kts 37°
2026-04-24 13:47 -0.52167 116.94247 6126 ft 252 kts 37°
2026-04-24 13:47 -0.50661 116.95193 6082 ft 259 kts 18°
2026-04-24 13:47 -0.48864 116.95259 5991 ft 260 kts 342°
2026-04-24 13:47 -0.47342 116.94270 5867 ft 259 kts 308°
2026-04-24 13:48 -0.46634 116.92632 5727 ft 259 kts 275°
2026-04-24 13:48 -0.46931 116.90877 5580 ft 258 kts 242°
2026-04-24 13:48 -0.48116 116.89532 5442 ft 258 kts 217°
2026-04-24 13:48 -0.49550 116.88484 5283 ft 254 kts 215°
2026-04-24 13:49 -0.50974 116.87465 5222 ft 243 kts 216°
2026-04-24 13:49 -0.52306 116.86488 5203 ft 230 kts 216°
2026-04-24 13:49 -0.53579 116.85563 5197 ft 225 kts 210°
2026-04-24 13:49 -0.55038 116.85102 5192 ft 225 kts 180°
2026-04-24 13:50 -0.56553 116.85432 5197 ft 225 kts 151°
2026-04-24 13:50 -0.57722 116.86480 5201 ft 225 kts 121°
2026-04-24 13:50 -0.58111 116.87320 5203 ft 225 kts 104°
2026-04-24 13:50 -0.58156 116.88890 5206 ft 225 kts 75°
2026-04-24 13:51 -0.57447 116.90265 5208 ft 225 kts 46°
2026-04-24 13:51 -0.56239 116.91284 5213 ft 225 kts 36°
2026-04-24 13:51 -0.54960 116.92207 5210 ft 225 kts 36°
2026-04-24 13:51 -0.53685 116.93130 5208 ft 225 kts 36°
2026-04-24 13:52 -0.52389 116.94089 5208 ft 225 kts 37°
2026-04-24 13:52 -0.51117 116.95011 5204 ft 225 kts 29°
2026-04-24 13:52 -0.49615 116.95403 5200 ft 225 kts 356°
2026-04-24 13:52 -0.48127 116.94953 5202 ft 225 kts 327°
2026-04-24 13:53 -0.47048 116.93848 5201 ft 225 kts 298°
2026-04-24 13:53 -0.46623 116.92368 5199 ft 225 kts 270°
2026-04-24 13:53 -0.46960 116.90846 5198 ft 225 kts 241°
2026-04-24 13:53 -0.47972 116.89665 5204 ft 225 kts 218°
2026-04-24 13:54 -0.49234 116.88724 5202 ft 225 kts 215°
2026-04-24 13:54 -0.50534 116.87794 5201 ft 225 kts 216°
2026-04-24 13:54 -0.51799 116.86871 5201 ft 225 kts 216°
2026-04-24 13:54 -0.53073 116.85922 5201 ft 225 kts 217°
2026-04-24 13:55 -0.54453 116.85191 5191 ft 225 kts 192°
2026-04-24 13:55 -0.55995 116.85227 5196 ft 225 kts 161°
2026-04-24 13:55 -0.57325 116.86027 5201 ft 225 kts 133°
2026-04-24 13:55 -0.58105 116.87366 5205 ft 225 kts 104°
2026-04-24 13:56 -0.58142 116.88902 5208 ft 225 kts 75°
2026-04-24 13:56 -0.57436 116.90269 5209 ft 225 kts 46°
2026-04-24 13:56 -0.56246 116.91275 5213 ft 225 kts 36°
2026-04-24 13:56 -0.54960 116.92203 5210 ft 225 kts 35°
2026-04-24 13:57 -0.53683 116.93126 5209 ft 225 kts 36°
2026-04-24 13:57 -0.52432 116.94050 5208 ft 225 kts 37°
2026-04-24 13:57 -0.51175 116.95017 5143 ft 236 kts 43°
2026-04-24 13:57 -0.50270 116.96429 4805 ft 244 kts 74°
2026-04-24 13:58 -0.50172 116.98097 4516 ft 247 kts 101°
2026-04-24 13:58 -0.50751 116.99724 4233 ft 250 kts 113°
2026-04-24 13:58 -0.51270 117.01405 3921 ft 254 kts 97°
2026-04-24 13:58 -0.51409 117.03144 3637 ft 255 kts 92°
2026-04-24 13:59 -0.51455 117.04932 3381 ft 252 kts 90°
2026-04-24 13:59 -0.51459 117.06615 3364 ft 230 kts 90°
2026-04-24 13:59 -0.51449 117.08190 3334 ft 220 kts 89°
2026-04-24 13:59 -0.51435 117.09672 3298 ft 210 kts 89°
2026-04-24 14:00 -0.51318 117.11097 3226 ft 201 kts 71°
2026-04-24 14:00 -0.50591 117.12221 3211 ft 186 kts 46°
2026-04-24 14:00 -0.49729 117.13061 3062 ft 178 kts 43°
2026-04-24 14:00 -0.48836 117.13888 2916 ft 169 kts 43°
2026-04-24 14:01 -0.48062 117.14612 2703 ft 162 kts 43°
2026-04-24 14:01 -0.47277 117.15358 2481 ft 148 kts 44°
2026-04-24 14:01 -0.46553 117.16054 2274 ft 143 kts 44°
2026-04-24 14:01 -0.45841 117.16743 2092 ft 142 kts 44°
2026-04-24 14:02 -0.45136 117.17427 1912 ft 142 kts 44°
2026-04-24 14:02 -0.44416 117.18127 1727 ft 141 kts 44°
2026-04-24 14:02 -0.43709 117.18813 1545 ft 141 kts 44°
2026-04-24 14:02 -0.42999 117.19504 1363 ft 141 kts 44°
2026-04-24 14:03 -0.42287 117.20197 1179 ft 140 kts 44°
2026-04-24 14:03 -0.41583 117.20881 999 ft 140 kts 44°
2026-04-24 14:03 -0.40878 117.21579 812 ft 140 kts 44°
2026-04-24 14:03 -0.40174 117.22269 622 ft 139 kts 44°
2026-04-24 14:04 -0.39479 117.22953 435 ft 139 kts 44°
2026-04-24 14:04 -0.38784 117.23630 262 ft 138 kts 44°
2026-04-24 14:04 -0.38092 117.24307 99 ft 138 kts 44°
2026-04-24 14:04 -0.37518 117.24865 82 ft 104 kts 44°
2026-04-24 14:05 -0.37217 117.25159 81 ft 38 kts 44°